Location: B
(0.0000°N, 0.0000°E)
Time: 21:09:28
(UTC+01:00)

Amateur Radio Satellites - All Passes

Search period start: 18 January 2017 20:39
Search period end: 19 January 2017 20:39
Location: B, 0.0000°N, 0.0000°E

Satellite Date Start Highest point End Downlink Frequencies (MHz)
Time Altitude Azimuth
CANX-2 18 Jan 20:45:10 20:48:55 32° 259° (WSW) 20:52:40 2200.000
JUGNU 18 Jan 20:47:02 20:51:42 23° 17° (NNE) 20:56:24 437.505
HO-68 18 Jan 20:58:50 21:05:39 47° 255° (WSW) 21:12:28 435.675
SEEDS 18 Jan 21:00:59 21:04:52 38° 259° (WSW) 21:08:45 437.485
STRAND 1 18 Jan 21:02:14 21:05:38 18° 283° (WNW) 21:09:03 437.568
CUBEBUG 2 18 Jan 21:02:37 21:06:59 72° 258° (WSW) 21:11:13 437.445
Oscar 11 18 Jan 21:05:01 21:08:33 25° 78° (ENE) 21:12:05 145.826/435.025
COMPASS 1 18 Jan 21:10:42 21:14:42 47° 259° (W) 21:18:42 437.405
AAUSAT CUBESAT 2 18 Jan 21:24:26 21:28:20 42° 258° (WSW) 21:32:16 437.432
DELFI C3 18 Jan 21:28:51 21:30:23 12° 78° (ENE) 21:31:54 145.870
ISS 18 Jan 21:29:59 21:33:09 47° 306° (NW) 21:36:17 145.825
GONETS M04 18 Jan 21:32:18 21:40:16 41° 273° (W) 21:48:15
UWE-3 18 Jan 21:36:08 21:40:12 42° 258° (WSW) 21:44:10 435.000/436.395/437.385
FUNcube-1 18 Jan 21:38:06 21:42:19 90° 70° (ENE) 21:46:27 145.935
PRISM 18 Jan 21:38:09 21:41:55 37° 102° (ESE) 21:45:41 437.425
ANTELSAT 18 Jan 21:50:45 21:52:44 13° 103° (ESE) 21:54:44 437.575/2403.000
Cosmos 2499 18 Jan 21:59:13 22:04:39 18° 272° (W) 22:09:58 435.465 / 435.565
ZACube-1 18 Jan 22:00:10 22:04:04 36° 258° (WSW) 22:07:52 437.345
SRMSAT 18 Jan 22:12:34 22:15:52 15° 12° (NNE) 22:19:10 437.500
HUMSAT D 18 Jan 22:30:41 22:34:36 48° 78° (ENE) 22:38:31 437.325/437.525
RS-15 18 Jan 22:34:23 22:44:34 40° 110° (ESE) 22:55:08 29.354- 29.394
JUGNU 18 Jan 22:35:05 22:40:59 59° 21° (NNE) 22:46:53 437.505
JAS-2 18 Jan 22:39:52 22:45:49 24° 104° (ESE) 22:51:46 435.910
Oscar 11 18 Jan 22:42:32 22:44:24 13° 258° (WSW) 22:46:18 145.826/435.025
UNISAT 6 18 Jan 22:55:52 23:00:24 75° 282° (WNW) 23:05:04 437.425
DELFI C3 18 Jan 23:01:47 23:04:54 22° 259° (WSW) 23:08:02 145.870
TIGRISAT 18 Jan 23:10:02 23:14:27 52° 282° (WNW) 23:18:58 435.000
POLYITAN 1 18 Jan 23:21:55 23:22:32 10° 102° (ESE) 23:23:10 437.675
QB50P2 18 Jan 23:22:08 23:23:41 12° 102° (ESE) 23:25:15 145.880/145.840
BY70-1 18 Jan 23:22:52 23:25:07 36° 78° (ENE) 23:27:34 436.1900
ANTELSAT 18 Jan 23:25:08 23:29:07 30° 281° (WNW) 23:33:11 437.575/2403.000
PHONESAT 2.4 18 Jan 23:29:03 23:31:10 29° 137° (SE) 23:33:14 2401.200-2431.200
POPSAT HIP 1 18 Jan 23:42:30 23:45:44 21° 102° (ESE) 23:48:59 437.405
DUCHIFAT 1 18 Jan 23:55:42 23:59:17 27° 102° (ESE) 00:02:54 145.980
NANOSAT C BR1 18 Jan 23:59:48 00:03:40 35° 102° (ESE) 00:07:34 145.865
CUBEBUG 1 18 Jan 23:59:51 00:03:49 32° 78° (ENE) 00:07:46 437.445
SRMSAT 19 Jan 00:00:19 00:05:37 32° 19° (NNE) 00:10:52 437.500
AISAT 19 Jan 00:10:47 00:14:32 27° 78° (ENE) 00:18:17 437.250
PCSat 19 Jan 00:12:34 00:17:31 37° 109° (ESE) 00:22:28 145.827
50 SAT 19 Jan 00:18:31 00:21:02 18° 78° (ENE) 00:23:33 437.505
ESTCUBE 1 19 Jan 00:23:06 00:27:31 56° 258° (WSW) 00:31:56 437.505/2401.250
JAS-2 19 Jan 00:23:09 00:30:24 45° 283° (WNW) 00:37:47 435.910
JUGNU 19 Jan 00:24:15 00:30:03 51° 201° (SSW) 00:35:52 437.505
BUGSAT 1 19 Jan 00:38:56 00:42:31 30° 102° (ESE) 00:46:09 437.445
VELOX 1 19 Jan 00:43:34 00:48:02 75° 77° (ENE) 00:52:27 145.980
RS-15 19 Jan 00:46:28 00:56:31 37° 292° (WNW) 01:07:07 29.354- 29.394
QB50P1 19 Jan 00:50:45 00:54:34 34° 281° (WNW) 00:58:25 145.935-145.965
POLYITAN 1 19 Jan 00:54:19 00:58:02 30° 282° (WNW) 01:01:47 437.675
QB50P2 19 Jan 00:55:39 00:59:12 26° 282° (WNW) 01:02:47 145.880/145.840
AO-85 19 Jan 01:09:33 01:12:50 24° 69° (ENE) 01:16:16 145.980
POPSAT HIP 1 19 Jan 01:18:52 01:21:14 15° 282° (WNW) 01:23:38 437.405
DX 1 19 Jan 01:22:43 01:27:07 78° 258° (WSW) 01:31:29 434.975-435.025
Oscar 19 19 Jan 01:25:57 01:30:08 26° 103° (ESE) 01:34:20 437.125/150
UKube-1 19 Jan 01:26:05 01:30:26 77° 77° (ENE) 01:34:44 .
Gurwin Techsat 1B 19 Jan 01:26:45 01:27:35 10° 103° (ESE) 01:28:25 435.225
SPROUT 19 Jan 01:28:33 01:32:27 35° 258° (WSW) 01:36:20 437.525
TISAT 1 19 Jan 01:29:29 01:32:12 17° 78° (ENE) 01:34:54 437.305
YUBILEINY 19 Jan 01:30:53 01:34:17 13° 87° (E) 01:37:40 435.215
DUCHIFAT 1 19 Jan 01:33:28 01:34:42 11° 282° (WNW) 01:35:56 145.980
CUBEBUG 1 19 Jan 01:39:01 01:39:48 10° 258° (WSW) 01:40:36 437.445
Cosmos 2491 19 Jan 01:48:14 01:54:52 24° 93° (E) 02:01:26 435.465 / 435.565
AISAT 19 Jan 01:48:34 01:50:43 13° 257° (WSW) 01:52:51 437.250
SRMSAT 19 Jan 01:48:55 01:54:53 87° 22° (NNE) 02:00:51 437.500
50 SAT 19 Jan 01:53:15 01:53:59 10° 258° (WSW) 01:54:42 437.505
PCSat 19 Jan 01:57:56 02:00:39 14° 290° (WNW) 02:03:21 145.827
JUGNU 19 Jan 02:15:00 02:19:24 21° 196° (SSW) 02:23:47 437.505
BEESAT 19 Jan 02:45:51 02:49:45 25° 78° (ENE) 02:53:38 436.000
SWISSCUBE 19 Jan 02:47:00 02:51:10 31° 78° (ENE) 02:55:17 437.505
AO-85 19 Jan 02:51:30 02:53:02 12° 246° (WSW) 02:54:36 145.980
Gurwin Techsat 1B 19 Jan 03:02:08 03:07:13 47° 282° (WNW) 03:12:19 435.225
TISAT 1 19 Jan 03:04:38 03:07:34 18° 258° (WSW) 03:10:29 437.305
Oscar 19 19 Jan 03:05:38 03:09:10 19° 283° (WNW) 03:12:43 437.125/150
AIST 1 19 Jan 03:10:15 03:14:00 32° 266° (W) 03:17:48
YUBILEINY 19 Jan 03:22:01 03:30:42 70° 267° (W) 03:39:22 435.215
AO-7 19 Jan 03:34:24 03:41:59 40° 106° (ESE) 03:49:32 29.400- 29.500
BEESAT 3 19 Jan 03:37:12 03:40:34 26° 68° (ENE) 03:43:54 437.485
SRMSAT 19 Jan 03:38:47 03:44:09 35° 199° (SSW) 03:49:30 437.500
ITAMSAT 1 19 Jan 03:42:30 03:47:41 68° 103° (ESE) 03:52:54 435.822/435.867
Cosmos 2491 19 Jan 03:43:15 03:51:18 42° 273° (W) 03:59:20 435.465 / 435.565
ITUPSAT 1 19 Jan 03:46:45 03:51:20 49° 258° (WSW) 03:55:54 437.325
M-CUBED/EXP-1 PRIME 19 Jan 03:50:33 03:53:48 19° 75° (ENE) 03:56:58 437.505
Cosmos 2504 19 Jan 03:56:04 04:03:12 76° 266° (W) 04:10:28 435.465 / 435.565
JUGNU 19 Jan 04:07:34 04:09:15 11° 187° (S) 04:10:56 437.505
BEESAT 2 19 Jan 04:17:24 04:21:00 33° 68° (ENE) 04:24:36 435.950
CUSAT 1 19 Jan 04:19:16 04:22:24 37° 279° (W) 04:26:22 437.405
BEESAT 19 Jan 04:24:22 04:27:15 16° 257° (WSW) 04:30:08 436.000
SWISSCUBE 19 Jan 04:26:27 04:28:39 13° 257° (WSW) 04:30:52 437.505
AUBIESAT-1 19 Jan 04:27:47 04:32:12 46° 75° (ENE) 04:36:28 437.475
MOZHAYETS 4 19 Jan 04:35:32 04:39:55 48° 258° (WSW) 04:44:17
DANDE 19 Jan 04:51:26 04:54:03 72° 95° (E) 04:57:02 436.750
STARS 19 Jan 04:52:19 04:55:45 22° 78° (ENE) 04:59:09 437.465
CUBESAT XI-V 19 Jan 05:15:54 05:20:24 50° 78° (ENE) 05:24:55 437.345
HORYU 2 19 Jan 05:17:05 05:19:29 14° 103° (ESE) 05:21:54 437.375
M-CUBED/EXP-1 PRIME 19 Jan 05:24:15 05:27:57 23° 254° (WSW) 05:31:36 437.505
BRITE-PL 19 Jan 05:24:36 05:28:51 49° 101° (E) 05:32:55 437.365/2234.400
AO-7 19 Jan 05:27:40 05:34:22 28° 287° (WNW) 05:41:06 29.400- 29.500
KKS-1 19 Jan 05:29:18 05:33:26 36° 258° (WSW) 05:37:31 437.445
SRMSAT 19 Jan 05:30:23 05:33:49 16° 193° (SSW) 05:37:15 437.500
GOMX 1 19 Jan 05:38:59 05:42:05 20° 102° (ESE) 05:45:10 467.674
CUTE-I 19 Jan 06:19:17 06:23:48 28° 103° (ESE) 06:28:20 437.470
DOVE 4 19 Jan 06:26:50 06:30:25 28° 102° (ESE) 06:34:05 437.250
STARS 19 Jan 06:29:12 06:31:49 16° 257° (WSW) 06:34:25 437.465
NOAA 18 19 Jan 06:51:03 06:55:47 31° 103° (ESE) 07:00:33 137.9125
HORYU 2 19 Jan 06:52:06 06:55:45 25° 282° (WNW) 06:59:25 437.375
O/OREOS (USA 219) 19 Jan 06:53:20 06:57:42 48° 284° (WNW) 07:02:01 437.305
LilacSat-2 19 Jan 06:59:02 07:02:53 65° 282° (WNW) 07:06:45 437.200
Cubesat XI-IV 19 Jan 07:00:58 07:06:19 88° 103° (ESE) 07:11:42 437.490
HO-68 19 Jan 07:06:03 07:09:50 15° 105° (ESE) 07:13:36 435.675
NOAA 15 19 Jan 07:16:46 07:21:55 55° 283° (WNW) 07:27:04 137.62
GOMX 1 19 Jan 07:17:50 07:19:56 14° 282° (WNW) 07:22:01 467.674
CANX-2 19 Jan 07:18:05 07:19:44 12° 102° (ESE) 07:21:23 2200.000
AIST 2 19 Jan 07:36:04 07:40:13 61° 248° (WSW) 07:44:19 435.215
SO-50 19 Jan 07:38:20 07:43:08 81° 113° (ESE) 07:47:53 436.795
JUGNU 19 Jan 07:45:52 07:49:28 16° 167° (SSE) 07:53:03 437.505
STRAND 1 19 Jan 07:54:19 07:59:24 70° 78° (ENE) 08:04:26 437.568
CUTE-I 19 Jan 07:59:54 08:03:33 19° 283° (WNW) 08:07:16 437.470
CINEMA 3 19 Jan 08:07:52 08:12:10 66° 281° (WNW) 08:16:43 145.822/145.860
GONETS M04 19 Jan 08:08:59 08:17:26 50° 87° (E) 08:25:52
UWE-3 19 Jan 08:13:05 08:14:46 12° 103° (ESE) 08:16:27 435.000/436.395/437.385
Cosmos 2499 19 Jan 08:13:52 08:20:52 68° 87° (E) 08:28:11 435.465 / 435.565
CUTE 1.7 + AOD 2 19 Jan 08:22:13 08:26:30 87° 281° (W) 08:30:46 437.475
NOAA 18 19 Jan 08:32:37 08:36:10 18° 283° (WNW) 08:39:45 137.9125
ZACube-1 19 Jan 08:35:34 08:37:33 13° 102° (ESE) 08:39:33 437.345
HO-68 19 Jan 08:50:14 08:57:11 56° 284° (WNW) 09:04:09 435.675
CANX-2 19 Jan 08:51:44 08:55:19 26° 281° (WNW) 08:58:53 2200.000
ISS 19 Jan 09:03:45 09:07:00 86° 239° (WSW) 09:10:17 145.825
SEEDS 19 Jan 09:06:16 09:10:02 32° 282° (WNW) 09:13:49 437.485
SRMSAT 19 Jan 09:12:24 09:14:24 12° 172° (S) 09:16:23 437.500
Oscar 11 19 Jan 09:13:15 09:17:11 34° 102° (ESE) 09:21:06 145.826/435.025
CUBEBUG 2 19 Jan 09:14:27 09:18:48 49° 281° (W) 09:23:17 437.445
COMPASS 1 19 Jan 09:14:50 09:18:45 41° 281° (WNW) 09:22:41 437.405
DELFI C3 19 Jan 09:27:40 09:28:47 11° 102° (ESE) 09:29:56 145.870
AAUSAT CUBESAT 2 19 Jan 09:27:59 09:31:48 37° 282° (WNW) 09:35:39 437.432
JUGNU 19 Jan 09:33:32 09:38:55 37° 160° (SSE) 09:44:17 437.505
PRISM 19 Jan 09:40:37 09:44:33 42° 78° (ENE) 09:48:28 437.425
UWE-3 19 Jan 09:46:54 09:50:53 31° 281° (W) 09:54:59 435.000/436.395/437.385
FUNcube-1 19 Jan 09:47:00 09:51:27 67° 281° (WNW) 09:55:59 145.935
ANTELSAT 19 Jan 10:03:14 10:06:09 18° 79° (ENE) 10:09:01 437.575/2403.000
GONETS M04 19 Jan 10:07:50 10:13:50 20° 267° (W) 10:19:54
ZACube-1 19 Jan 10:09:38 10:13:31 29° 281° (WNW) 10:17:28 437.345
RS-15 19 Jan 10:17:27 10:27:45 34° 68° (ENE) 10:37:33 29.354- 29.394
HUMSAT D 19 Jan 10:34:57 10:39:11 59° 101° (ESE) 10:43:25 437.325/437.525
SRMSAT 19 Jan 10:59:47 11:04:22 22° 163° (SSE) 11:08:55 437.500
DELFI C3 19 Jan 11:00:10 11:03:19 23° 282° (WNW) 11:06:29 145.870
UNISAT 6 19 Jan 11:09:46 11:13:58 46° 258° (WSW) 11:18:05 437.425
JUGNU 19 Jan 11:22:07 11:27:58 80° 337° (NNW) 11:33:50 437.505
TIGRISAT 19 Jan 11:23:54 11:27:49 32° 258° (WSW) 11:31:38 435.000
QB50P1 19 Jan 11:24:04 11:25:13 11° 78° (ENE) 11:26:23 145.935-145.965
POLYITAN 1 19 Jan 11:27:01 11:28:51 13° 78° (ENE) 11:30:41 437.675
QB50P2 19 Jan 11:27:44 11:30:02 14° 78° (ENE) 11:32:20 145.880/145.840
ANTELSAT 19 Jan 11:39:33 11:42:36 19° 257° (WSW) 11:45:36 437.575/2403.000
POPSAT HIP 1 19 Jan 11:48:26 11:51:57 26° 78° (ENE) 11:55:27 437.405
JAS-2 19 Jan 11:58:01 12:03:14 69° 257° (WSW) 12:08:23 435.910
DUCHIFAT 1 19 Jan 12:01:01 12:04:47 32° 78° (ENE) 12:08:31 145.980
SPROUT 19 Jan 12:02:32 12:03:52 11° 102° (ESE) 12:05:14 437.525
NANOSAT C BR1 19 Jan 12:05:28 12:09:28 43° 78° (ENE) 12:13:26 145.865
50 SAT 19 Jan 12:06:29 12:07:27 11° 102° (ESE) 12:08:25 437.505
CUBEBUG 1 19 Jan 12:09:38 12:13:43 44° 102° (ESE) 12:17:50 437.445
PHONESAT 2.4 19 Jan 12:13:38 12:15:22 18° 222° (SW) 12:17:06 2401.200-2431.200
BY70-1 19 Jan 12:19:42 12:20:54 12° 284° (WNW) 12:22:04 436.1900
AISAT 19 Jan 12:21:57 12:25:59 37° 102° (ESE) 12:30:03 437.250
RS-15 19 Jan 12:28:52 12:39:44 44° 250° (WSW) 12:50:11 29.354- 29.394
ESTCUBE 1 19 Jan 12:37:26 12:41:32 35° 282° (WNW) 12:45:39 437.505/2401.250
BUGSAT 1 19 Jan 12:41:59 12:45:46 34° 79° (ENE) 12:49:28 437.445
SRMSAT 19 Jan 12:47:57 12:53:47 56° 159° (SSE) 12:59:39 437.500
PCSat 19 Jan 12:48:16 12:53:38 69° 251° (WSW) 12:59:00 145.827
VELOX 1 19 Jan 12:55:06 12:59:26 75° 283° (WNW) 13:03:50 145.980
QB50P1 19 Jan 12:57:07 13:00:44 27° 258° (WSW) 13:04:19 145.935-145.965
POLYITAN 1 19 Jan 13:00:58 13:04:23 24° 258° (WSW) 13:07:47 437.675
QB50P2 19 Jan 13:02:20 13:05:34 21° 258° (WSW) 13:08:47 145.880/145.840
JUGNU 19 Jan 13:12:04 13:17:06 29° 342° (NNW) 13:22:10 437.505
AO-85 19 Jan 13:21:06 13:26:16 57° 112° (ESE) 13:31:07 145.980
POPSAT HIP 1 19 Jan 13:25:54 13:27:27 12° 258° (WSW) 13:29:00 437.405
DX 1 19 Jan 13:32:23 13:36:36 56° 282° (WNW) 13:40:51 434.975-435.025
TISAT 1 19 Jan 13:34:09 13:37:12 20° 102° (ESE) 13:40:15 437.305
UKube-1 19 Jan 13:34:29 13:38:45 80° 282° (WNW) 13:43:03 .
SPROUT 19 Jan 13:35:54 13:39:30 27° 282° (WNW) 13:43:10 437.525
50 SAT 19 Jan 13:38:01 13:40:23 17° 282° (WNW) 13:42:46 437.505
AIST 1 19 Jan 13:41:18 13:43:19 13° 94° (E) 13:45:20
Oscar 19 19 Jan 13:58:40 14:03:49 68° 78° (ENE) 14:08:57 437.125/150
YUBILEINY 19 Jan 14:00:31 14:07:45 29° 93° (E) 14:14:57 435.215
Gurwin Techsat 1B 19 Jan 14:01:25 14:06:05 31° 77° (ENE) 14:10:43 435.225
Cosmos 2504 19 Jan 14:16:41 14:21:58 17° 94° (E) 14:27:12 435.465 / 435.565
Cosmos 2491 19 Jan 14:20:06 14:28:29 49° 87° (E) 14:36:53 435.465 / 435.565
ITUPSAT 1 19 Jan 14:32:55 14:35:57 17° 103° (ESE) 14:38:59 437.325
SRMSAT 19 Jan 14:37:11 14:43:01 53° 339° (NNW) 14:48:51 437.500
ITAMSAT 1 19 Jan 14:42:30 14:43:35 11° 77° (ENE) 14:44:39 435.822/435.867
JUGNU 19 Jan 15:03:45 15:06:41 14° 349° (N) 15:09:39 437.505
BEESAT 19 Jan 15:06:54 15:11:31 49° 102° (ESE) 15:16:09 436.000
SWISSCUBE 19 Jan 15:08:17 15:13:00 61° 103° (ESE) 15:17:44 437.505
TISAT 1 19 Jan 15:10:03 15:12:33 16° 282° (WNW) 15:15:05 437.305
CUSAT 1 19 Jan 15:14:42 15:21:30 40° 82° (E) 15:27:07 437.405
AIST 1 19 Jan 15:17:07 15:20:38 23° 274° (W) 15:24:08
MOZHAYETS 4 19 Jan 15:17:25 15:19:39 13° 102° (ESE) 15:21:52
BEESAT 3 19 Jan 15:29:13 15:32:26 26° 112° (ESE) 15:35:39 437.485
Gurwin Techsat 1B 19 Jan 15:42:29 15:45:44 17° 257° (WSW) 15:49:00 435.225
DANDE 19 Jan 15:49:39 15:56:36 30° 84° (E) 16:03:04 436.750
M-CUBED/EXP-1 PRIME 19 Jan 15:52:23 15:52:40 10° 107° (ESE) 15:52:58 437.505
YUBILEINY 19 Jan 15:56:23 16:04:08 36° 273° (W) 16:11:56 435.215
AO-7 19 Jan 16:00:06 16:08:20 64° 74° (ENE) 16:16:33 29.400- 29.500
Cosmos 2504 19 Jan 16:06:18 16:15:01 60° 273° (W) 16:23:35 435.465 / 435.565
KKS-1 19 Jan 16:07:07 16:09:26 14° 103° (ESE) 16:11:47 437.445
ITUPSAT 1 19 Jan 16:09:35 16:13:29 25° 283° (WNW) 16:17:27 437.325
BEESAT 2 19 Jan 16:10:36 16:14:07 33° 112° (ESE) 16:17:38 435.950
ITAMSAT 1 19 Jan 16:17:51 16:22:46 44° 257° (WSW) 16:27:39 435.822/435.867
Cosmos 2491 19 Jan 16:18:53 16:24:55 21° 267° (W) 16:31:02 435.465 / 435.565
AUBIESAT-1 19 Jan 16:27:30 16:30:28 32° 106° (ESE) 16:33:34 437.475
SRMSAT 19 Jan 16:27:59 16:32:29 22° 344° (NNW) 16:37:00 437.500
MOZHAYETS 4 19 Jan 16:52:32 16:56:31 29° 282° (WNW) 17:00:31
CUSAT 1 19 Jan 16:58:03 17:02:49 19° 270° (W) 17:07:03 437.405
STARS 19 Jan 17:02:32 17:06:24 31° 102° (ESE) 17:10:17 437.465
M-CUBED/EXP-1 PRIME 19 Jan 17:24:53 17:26:55 16° 285° (WNW) 17:28:59 437.505
O/OREOS (USA 219) 19 Jan 17:27:41 17:29:26 12° 76° (ENE) 17:31:10 437.305
HORYU 2 19 Jan 17:28:37 17:31:56 21° 78° (ENE) 17:35:12 437.375
DANDE 19 Jan 17:31:33 17:39:02 38° 267° (W) 17:45:57 436.750
CUBESAT XI-V 19 Jan 17:34:01 17:38:39 89° 94° (E) 17:43:17 437.345
KKS-1 19 Jan 17:42:08 17:45:43 25° 282° (WNW) 17:49:20 437.445
BRITE-PL 19 Jan 17:49:22 17:54:45 72° 258° (WSW) 18:00:23 437.365/2234.400
AO-7 19 Jan 17:56:07 18:00:40 16° 253° (WSW) 18:05:15 29.400- 29.500
GOMX 1 19 Jan 18:00:18 18:05:38 54° 78° (ENE) 18:10:57 467.674
Cubesat XI-IV 19 Jan 18:02:49 18:06:09 17° 77° (ENE) 18:09:29 437.490
NOAA 15 19 Jan 18:15:24 18:19:45 26° 77° (ENE) 18:24:05 137.62
SRMSAT 19 Jan 18:20:32 18:22:30 12° 353° (N) 18:24:28 437.500
STARS 19 Jan 18:41:27 18:42:29 11° 282° (WNW) 18:43:30 437.465
JUGNU 19 Jan 18:44:26 18:46:58 13° 10° (N) 18:49:32 437.505
DOVE 4 19 Jan 18:46:09 18:51:25 65° 79° (ENE) 18:56:29 437.250
STRAND 1 19 Jan 18:52:46 18:53:01 10° 103° (ESE) 18:53:18 437.568
LilacSat-2 19 Jan 18:53:35 18:57:20 81° 258° (WSW) 19:01:05 437.200
CUTE-I 19 Jan 18:57:53 19:03:13 83° 77° (ENE) 19:08:31 437.470
HO-68 19 Jan 18:58:53 19:01:28 12° 74° (ENE) 19:04:01 435.675
O/OREOS (USA 219) 19 Jan 19:04:39 19:08:32 28° 255° (WSW) 19:12:28 437.305
HORYU 2 19 Jan 19:05:22 19:08:12 17° 257° (WSW) 19:11:01 437.375
CANX-2 19 Jan 19:23:47 19:26:09 15° 78° (ENE) 19:28:29 2200.000
AIST 2 19 Jan 19:34:28 19:38:21 48° 292° (WNW) 19:42:16 435.215
NOAA 18 19 Jan 19:34:46 19:40:19 81° 257° (WSW) 19:45:50 137.9125
SEEDS 19 Jan 19:38:40 19:39:48 11° 78° (ENE) 19:40:56 437.485
Cubesat XI-IV 19 Jan 19:41:17 19:45:57 31° 257° (WSW) 19:50:35 437.490
GOMX 1 19 Jan 19:42:57 19:43:21 10° 258° (WSW) 19:43:46 467.674
SO-50 19 Jan 19:51:18 19:55:37 52° 248° (WSW) 19:59:59 436.795
NOAA 15 19 Jan 19:55:31 19:59:14 20° 257° (WSW) 20:02:57 137.62
SRMSAT 19 Jan 20:12:22 20:12:53 10° 3° (N) 20:13:25 437.500
UWE-3 19 Jan 20:23:39 20:26:07 15° 79° (E) 20:28:32 435.000/436.395/437.385
CINEMA 3 19 Jan 20:24:41 20:29:08 39° 258° (WSW) 20:33:24 145.822/145.860
STRAND 1 19 Jan 20:26:59 20:31:53 46° 283° (WNW) 20:36:49 437.568
CUTE 1.7 + AOD 2 19 Jan 20:28:35 20:32:47 70° 259° (WSW) 20:36:58 437.475
